STARLINK-34725, 64843

Orbit data source: Space-Track

STARLINK-34725, 64843 is a payload satellite owned by SpaceX/Seattle (US) in SSO that was launched on Sat, 19 Jul 2025 UTC via an FALCON 9 launch vehicle from the Air Force Western Test Range (AFWTR). Payload-class satellites include a variety of spacecraft equipped with specific instruments for various scientific and technological missions. These include communications satellites like Starlink; space stations such as the ISS; scientific satellites like the Hubble; Earth observation satellites from companies like Planet Labs, Umbra, and HawkEye 360; GPS; miniature CubeSats for education and research; and military/defense satellites.

Loading next visibility...
Identifier
64843, 2025-152B
Orbit
SSO
Country
Flag of USUS
Related business
Manufacturer
SpaceX/Seattle
Mission
Operational Commercial Communications
Bus & Motor
STARLINK V2MO, Unknown motor
Mass
575 kg wet, ~530 kg dry
Launch date (UTC)
2025-07-19 (9 months ago)
Launch vehicle
FALCON 9
Launch site
Air Force Western Test Range (AFWTR)
Object type
Payload
Rocket body
Debris
Shape & HBR
Box + 2 Pan, 17.7 m
Radar Cross Section
36.964 m², Large (>1 m²)

Expand to show TLE details & history
Last TLE update: 20 hours ago

TLE from 20 hours ago
0 STARLINK-34725
1 64843U 25152B   26094.52827621  .00005328  00000-0  37317-3 0  9996
2 64843  97.6022 310.9528 0002496  82.1176 278.0334 15.05652111 39306
Epoch: 2026-04-04T12:40Z
TLE epoch observation values (Epoch: 2026-04-04T12:40:43.064Z)
Latitude
-0.00003°
Longitude
-72.07339°
Altitude
552.329 km
Speed
7.586 km/s
True Right ascension
20h 43m 48s
True Declination
0° 00' 00"
Sunlit
Object was in daylight at epoch
Visualization orbit readout
Latitude
Unknown
Longitude
Unknown
Altitude
Unknown
Speed
Unknown
Apparent Right ascension
Unknown
Apparent Declination
Unknown
Sunlit
N/A
Visualization observer readout
Local Sidereal Time
14:34:19
Azimuth
Unknown
Elevation
Unknown
Doppler factor
Unknown
Orbital elements
Apogee altitude
548.227 km
Perigee altitude
544.77 km
Semi-major axis
6,924.635 km
Eccentricity
0.00025
Inclination
97.6022°
RAAN
310.9528°
Arg. of periapsis
82.1176°
True anomaly
278.00508°
Mean anomaly
278.0334°
Eccentric anomaly
278.01924°
Mean motion
3.76659 °/min
Orbital period
95.58 mins
BSTAR
0.00037317
Loading maneuver chart data...
Computing Atmospheric mass density...
Loading historical data...
Loading historical data...
Loading historical data...
Loading historical data...
Loading historical data...
Loading historical data...
Loading historical data...

Documentation

Showing up to 5 results
|